Location: Unspecified
(0.0000°N, 0.0000°E)
Time: 09:53:43
(UTC+00:00)

A-11 Canister half - Pass Details

Date: 08 October 2023
Orbit: 1514 x 1685 km, 47.2° (Epoch: 29 November)

Event Time Altitude Azimuth Distance (km) Brightness Sun altitude
Exits shadow 03:02:18 12° 189° (S) 3,585 10.9 -41.1°
Drops below altitude 10° 03:03:12 10° 184° (S) 3,756 11.0 -40.9°
Sets 03:07:36 0° 167° (SSE) 4,773 11.8 -39.8°
